Location: Austin
(30.3000°N, 97.7500°W)
Time: 10:29:40
(UTC-05:00)

Iridium 4 Rocket - Pass Details

Date: 05 September 2024
Orbit: 581 x 894 km, 86.9° (Epoch: 10 September)

Event Time Altitude Azimuth Distance (km) Brightness Sun altitude
Rises 20:54:23 0° 8° (N) 2,849 6.6 -14.8°
Reaches altitude 10° 20:56:44 10° 17° (NNE) 1,921 5.6 -15.3°
Maximum altitude 21:00:38 38° 86° (E) 896 3.4 -16.1°
Enters shadow 21:01:54 30° 126° (SE) 1,053 3.7 -16.4°
